Regional Weather Roundup
Issued by NWS Sioux Falls, SD

Home | Current Version | Previous Version | Text Only | Print | Product List | Glossary On
Versions: 1 2 3 4 5 6 7 8 9 10 11 12 13 14 15 16 17 18 19 20 21 22 23 24 25 26 27 28 29 30 31 32 33 34 35 36 37 38 39 40 41 42 43 44 45 46 47 48 49 50
000
ASUS43 KFSD 200602
RWRFSD

WEATHER ROUNDUP FOR SE SOUTH DAKOTA/SW MINNESOTA/NW IOWA
NATIONAL WEATHER SERVICE SIOUX FALLS SD
1200 AM CST SAT JAN 20 2018

NOTE: "FAIR" INDICATES FEW OR NO CLOUDS BELOW 12,000 FEET WITH NO
SIGNIFICANT WEATHER AND OR OBSTRUCTIONS TO VISIBILITY.


SDZ038>040-050-052>070-200700-
SOUTHEAST SOUTH DAKOTA

CITY           SKY/WX    TMP DP  RH WIND       PRES   REMARKS
BROOKINGS      CLOUDY    32  29  88 CALM      29.76S
CHAMBERLAIN    PTCLDY    35  33  94 W6        29.80R WCI  30
6HR MIN TEMP:  32; 6HR MAX TEMP:  42;

HURON          CLEAR     29  27  92 CALM      29.78R
6HR MIN TEMP:  26; 6HR MAX TEMP:  39;

MADISON        FAIR      32  32 100 NW7       29.76S WCI  26
MITCHELL       MOCLDY    31  29  92 SW5       29.78R WCI  26
6HR MIN TEMP:  31; 6HR MAX TEMP:  37;

SIOUX FALLS    CLOUDY    35  30  82 CALM      29.75F
6HR MIN TEMP:  31; 6HR MAX TEMP:  38;

WINNER         FAIR      34  30  85 NW3       29.79R
YANKTON        CLOUDY    35  30  82 NW7       29.77R WCI  29
$$

MNZ071-072-080-081-089-090-097-098-200700-
SOUTHWEST MINNESOTA

CITY           SKY/WX    TMP DP  RH WIND       PRES   REMARKS
FAIRMONT       CLOUDY    36  30  79 NW8       29.75R
JACKSON        CLOUDY    34  30  86 NW6       29.75R WCI  29
LUVERNE        CLOUDY    32  28  86 N6        29.76S WCI  26
MARSHALL       CLOUDY    35  28  75 SW7       29.76R WCI  29
6HR MIN TEMP:  32; 6HR MAX TEMP:  41;

MONTEVIDEO     CLOUDY    34  27  75 NW5       29.76R WCI  30
PIPESTONE      CLOUDY    34  28  80 N8        29.75S WCI  27
REDWOOD FALLS  CLOUDY    35  29  78 W9        29.75R WCI  28
TRACY          PTCLDY    36  31  80 W6        29.75R
WINDOM         PTCLDY    34  19  55 W8        29.75R WCI  27
WORTHINGTON    CLOUDY    31  28  89 NW8       29.76R WCI  23
$$

IAZ001>003-012>014-020>022-031-032-NEZ013-014-SDZ071-200700-
NORTHWEST IOWA

CITY           SKY/WX    TMP DP  RH WIND       PRES   REMARKS
CHEROKEE       CLOUDY    28  27  96 CALM      29.76S
DENISON        CLOUDY    32  28  86 CALM      29.78R
ESTHERVILLE    CLOUDY    34  30  85 NW7       29.74R WCI  28
LE MARS        CLOUDY    30  28  93 CALM      29.77R
ORANGE CITY    CLOUDY    34  32  93 NW6       29.75S WCI  29
SHELDON        CLOUDY    30  30 100 NW6       29.75R WCI  24
SIOUX CITY     CLOUDY    32  29  88 W5        29.77S WCI  27
6HR MIN TEMP:  30; 6HR MAX TEMP:  48;

SPENCER        CLOUDY    31  28  89 NW7       29.75S WCI  24
6HR MIN TEMP:  29; 6HR MAX TEMP:  40;

STORM LAKE     CLOUDY    32  30  93 W7        29.74F WCI  26
$$

ABBREVIATIONS USED IN REMARKS
   TC - TEMPERATURE IN CELSIUS
  WCI - WIND CHILL INDEX
   HX - HEAT INDEX
  VSB - VISIBILITY




USA.gov is the U.S. government's official web portal to all federal, state and local government web resources and services.